Zurück zum Katalog

STARLINK-11657

AktivKommunikationVLEO
NORAD 63558·PAYLOAD·🇺🇸 United States

Gestartet Apr 13, 2025 von Cape Canaveral Space Force Station

Loading…

Nächste Überflüge (nächste 24 Stunden)

TLE

AktuellSource: CelesTrak SupGP

Epoche: Sep 14, 2026, 22:22 UTC

1 63558C 25075L   26257.93243056  .00039024  00000+0  30310-3 0  2574
2 63558  43.0008  93.1942 0001617 270.4485 341.3165 15.70818784    10

Verfolge STARLINK-11657 in Echtzeit mit AllMySat

Download on the App Store